LOG8ML EGJJ-EGHI

Flight info

Callsign LOG8ML
Flight time 0h 30m
Altitude 13000
Route ORTAC Q41 THRED
Aircraft SF34/M-SDFGR/S

Departure

Time 2026-05-08 12:51
Airport Jersey Airport (EGJJ)

Arrival

Time 2026-05-08 13:22
Airport Southampton Airport (EGHI)
Time Latitude Longitude Altitude Speed Heading
2026-05-08 11:50 49.20475 -2.19511 280 ft 0 kts 16°
2026-05-08 12:39 49.20472 -2.19513 279 ft 3 kts 15°
2026-05-08 12:39 49.20450 -2.19520 279 ft 3 kts
2026-05-08 12:40 49.20429 -2.19519 279 ft 3 kts 336°
2026-05-08 12:40 49.20415 -2.19502 279 ft 2 kts 285°
2026-05-08 12:40 49.20414 -2.19500 279 ft 0 kts 284°
2026-05-08 12:46 49.20414 -2.19501 279 ft 1 kts 284°
2026-05-08 12:46 49.20434 -2.19611 279 ft 12 kts 285°
2026-05-08 12:46 49.20442 -2.19715 279 ft 8 kts 264°
2026-05-08 12:47 49.20433 -2.19865 279 ft 17 kts 268°
2026-05-08 12:47 49.20485 -2.19924 279 ft 12 kts 351°
2026-05-08 12:47 49.20526 -2.20027 279 ft 15 kts 287°
2026-05-08 12:47 49.20566 -2.20230 279 ft 17 kts 287°
2026-05-08 12:48 49.20608 -2.20442 279 ft 21 kts 287°
2026-05-08 12:48 49.20624 -2.20548 279 ft 0 kts 276°
2026-05-08 12:49 49.20624 -2.20552 279 ft 3 kts 274°
2026-05-08 12:49 49.20628 -2.20647 280 ft 13 kts 282°
2026-05-08 12:49 49.20656 -2.20697 280 ft 7 kts 354°
2026-05-08 12:50 49.20707 -2.20638 279 ft 10 kts 73°
2026-05-08 12:50 49.20711 -2.20595 278 ft 0 kts 82°
2026-05-08 12:50 49.20717 -2.20520 279 ft 32 kts 83°
2026-05-08 12:50 49.20778 -2.19813 281 ft 102 kts 83°
2026-05-08 12:51 49.20884 -2.18430 350 ft 153 kts 83°
2026-05-08 12:51 49.21117 -2.15024 1755 ft 165 kts 85°
2026-05-08 12:51 49.21393 -2.13265 2400 ft 175 kts 69°
2026-05-08 12:52 49.22058 -2.11722 3288 ft 176 kts 47°
2026-05-08 12:52 49.24315 -2.09611 4567 ft 202 kts 32°
2026-05-08 12:52 49.25508 -2.08540 5461 ft 195 kts 33°
2026-05-08 12:53 49.26669 -2.07505 6234 ft 201 kts 30°
2026-05-08 12:53 49.27917 -2.06475 6944 ft 203 kts 28°
2026-05-08 12:53 49.29184 -2.05506 7617 ft 208 kts 28°
2026-05-08 12:53 49.30475 -2.04366 8030 ft 221 kts 33°
2026-05-08 12:54 49.31851 -2.03311 8558 ft 226 kts 15°
2026-05-08 12:54 49.33504 -2.03132 8594 ft 249 kts 357°
2026-05-08 12:54 49.35261 -2.03222 8842 ft 257 kts 358°
2026-05-08 12:54 49.37033 -2.03331 9370 ft 250 kts 357°
2026-05-08 12:55 49.38732 -2.03376 9978 ft 247 kts
2026-05-08 12:55 49.40469 -2.03328 10407 ft 247 kts
2026-05-08 12:55 49.42142 -2.03288 11166 ft 239 kts
2026-05-08 12:55 49.43845 -2.03262 11499 ft 250 kts
2026-05-08 12:56 49.45538 -2.03169 12295 ft 236 kts
2026-05-08 12:56 49.47176 -2.03098 12908 ft 239 kts 360°
2026-05-08 12:56 49.48866 -2.02850 13278 ft 250 kts 10°
2026-05-08 12:56 49.50643 -2.02313 13202 ft 273 kts
2026-05-08 12:57 49.52568 -2.02057 13085 ft 287 kts 358°
2026-05-08 12:57 49.54535 -2.02402 13217 ft 287 kts 352°
2026-05-08 12:57 49.56538 -2.02891 13111 ft 294 kts 352°
2026-05-08 12:57 49.58590 -2.02952 13061 ft 297 kts
2026-05-08 12:58 49.60650 -2.02622 13031 ft 298 kts
2026-05-08 12:58 49.62722 -2.02428 13028 ft 297 kts
2026-05-08 12:58 49.64786 -2.02404 13025 ft 297 kts 360°
2026-05-08 12:58 49.66855 -2.02292 13024 ft 297 kts
2026-05-08 12:59 49.68914 -2.02137 13037 ft 297 kts
2026-05-08 12:59 49.70976 -2.02067 13038 ft 295 kts
2026-05-08 12:59 49.72994 -2.01946 13044 ft 295 kts
2026-05-08 12:59 49.75048 -2.01826 13042 ft 296 kts
2026-05-08 13:00 49.77110 -2.01733 13037 ft 296 kts
2026-05-08 13:00 49.79173 -2.01613 13039 ft 297 kts
2026-05-08 13:00 49.81236 -2.01503 13037 ft 297 kts
2026-05-08 13:00 49.83304 -2.01397 13036 ft 297 kts
2026-05-08 13:01 49.85371 -2.01281 13038 ft 297 kts
2026-05-08 13:01 49.87440 -2.01172 13038 ft 298 kts
2026-05-08 13:01 49.89481 -2.01064 13038 ft 297 kts
2026-05-08 13:01 49.91550 -2.00950 13037 ft 297 kts
2026-05-08 13:02 49.93617 -2.00841 13034 ft 297 kts
2026-05-08 13:02 49.95682 -2.00730 13036 ft 298 kts
2026-05-08 13:02 49.97753 -2.00617 13037 ft 298 kts
2026-05-08 13:02 49.99825 -2.00486 13034 ft 297 kts
2026-05-08 13:03 50.01778 -1.99542 13037 ft 296 kts 27°
2026-05-08 13:03 50.03585 -1.98024 13038 ft 296 kts 28°
2026-05-08 13:03 50.05454 -1.96662 13044 ft 297 kts 23°
2026-05-08 13:03 50.07344 -1.95485 13044 ft 297 kts 22°
2026-05-08 13:04 50.09245 -1.94224 13044 ft 297 kts 25°
2026-05-08 13:04 50.11124 -1.92884 13045 ft 297 kts 24°
2026-05-08 13:04 50.13030 -1.91631 13046 ft 298 kts 23°
2026-05-08 13:04 50.14929 -1.90343 13047 ft 297 kts 25°
2026-05-08 13:05 50.16818 -1.89032 13048 ft 298 kts 24°
2026-05-08 13:05 50.18723 -1.87757 13052 ft 298 kts 24°
2026-05-08 13:05 50.20624 -1.86458 13053 ft 297 kts 24°
2026-05-08 13:05 50.22516 -1.85159 13053 ft 297 kts 24°
2026-05-08 13:06 50.24412 -1.83875 13051 ft 297 kts 24°
2026-05-08 13:06 50.26303 -1.82579 13053 ft 297 kts 24°
2026-05-08 13:06 50.28191 -1.81286 13053 ft 297 kts 24°
2026-05-08 13:06 50.30056 -1.80015 13053 ft 296 kts 24°
2026-05-08 13:07 50.31947 -1.78717 13008 ft 298 kts 24°
2026-05-08 13:07 50.33854 -1.77409 12863 ft 301 kts 24°
2026-05-08 13:07 50.35778 -1.76091 12708 ft 302 kts 24°
2026-05-08 13:07 50.37704 -1.74767 12549 ft 303 kts 24°
2026-05-08 13:08 50.39635 -1.73440 12400 ft 304 kts 24°
2026-05-08 13:08 50.41581 -1.72103 12241 ft 307 kts 24°
2026-05-08 13:08 50.43557 -1.70741 11875 ft 312 kts 24°
2026-05-08 13:08 50.45545 -1.69371 11478 ft 313 kts 24°
2026-05-08 13:09 50.47537 -1.67998 11160 ft 311 kts 24°
2026-05-08 13:09 50.49495 -1.66645 11087 ft 303 kts 24°
2026-05-08 13:09 50.51384 -1.65341 11070 ft 299 kts 24°
2026-05-08 13:09 50.53283 -1.64027 11069 ft 298 kts 24°
2026-05-08 13:10 50.55192 -1.62705 10813 ft 302 kts 24°
2026-05-08 13:10 50.57128 -1.61363 10491 ft 305 kts 24°
2026-05-08 13:10 50.59069 -1.60017 10180 ft 305 kts 24°
2026-05-08 13:10 50.61003 -1.58675 9865 ft 303 kts 24°
2026-05-08 13:11 50.62891 -1.57362 9478 ft 283 kts 24°
2026-05-08 13:11 50.64636 -1.56149 9099 ft 268 kts 23°
2026-05-08 13:11 50.66317 -1.54980 8711 ft 262 kts 23°
2026-05-08 13:11 50.67978 -1.53816 8315 ft 260 kts 26°
2026-05-08 13:12 50.69454 -1.52282 8107 ft 254 kts 39°
2026-05-08 13:12 50.70804 -1.50546 8061 ft 247 kts 40°
2026-05-08 13:12 50.72117 -1.48827 8054 ft 244 kts 40°
2026-05-08 13:12 50.73424 -1.47114 8061 ft 243 kts 40°
2026-05-08 13:13 50.74718 -1.45414 8063 ft 245 kts 40°
2026-05-08 13:13 50.76076 -1.43625 8064 ft 263 kts 40°
2026-05-08 13:13 50.77506 -1.41740 8070 ft 271 kts 40°
2026-05-08 13:13 50.78960 -1.39816 8070 ft 276 kts 41°
2026-05-08 13:14 50.80445 -1.37857 8075 ft 280 kts 41°
2026-05-08 13:14 50.81940 -1.35888 8080 ft 280 kts 40°
2026-05-08 13:14 50.83433 -1.33910 8084 ft 280 kts 40°
2026-05-08 13:14 50.84932 -1.31928 8083 ft 281 kts 40°
2026-05-08 13:15 50.86428 -1.29949 8083 ft 280 kts 40°
2026-05-08 13:15 50.87887 -1.28019 7947 ft 268 kts 41°
2026-05-08 13:15 50.89293 -1.26169 7737 ft 259 kts 40°
2026-05-08 13:15 50.90668 -1.24363 7501 ft 255 kts 40°
2026-05-08 13:16 50.92034 -1.22567 7247 ft 255 kts 40°
2026-05-08 13:16 50.93402 -1.20773 6946 ft 256 kts 40°
2026-05-08 13:16 50.94866 -1.19350 6542 ft 232 kts 24°
2026-05-08 13:16 50.96274 -1.18451 6109 ft 207 kts 21°
2026-05-08 13:17 50.97758 -1.17569 5692 ft 244 kts 21°
2026-05-08 13:17 50.99379 -1.16626 5291 ft 250 kts 20°
2026-05-08 13:17 51.01020 -1.15684 4892 ft 252 kts 20°
2026-05-08 13:17 51.02739 -1.15309 4428 ft 250 kts 353°
2026-05-08 13:18 51.04267 -1.16236 3820 ft 232 kts 322°
2026-05-08 13:18 51.05428 -1.17947 3111 ft 224 kts 312°
2026-05-08 13:18 51.06463 -1.19722 2639 ft 208 kts 311°
2026-05-08 13:18 51.07231 -1.21463 2596 ft 184 kts 284°
2026-05-08 13:19 51.07149 -1.23529 2554 ft 197 kts 241°
2026-05-08 13:19 51.06268 -1.25183 2543 ft 198 kts 216°
2026-05-08 13:19 51.05207 -1.26616 2415 ft 204 kts 217°
2026-05-08 13:19 51.04126 -1.28121 2206 ft 211 kts 223°
2026-05-08 13:20 51.03265 -1.29993 1976 ft 207 kts 229°
2026-05-08 13:20 51.02291 -1.31503 1664 ft 185 kts 209°
2026-05-08 13:20 51.01217 -1.32365 1313 ft 171 kts 201°
2026-05-08 13:20 51.00119 -1.33031 1132 ft 166 kts 193°
2026-05-08 13:21 50.99017 -1.33473 837 ft 165 kts 188°
2026-05-08 13:21 50.97962 -1.34029 546 ft 151 kts 199°
2026-05-08 13:21 50.97057 -1.34562 323 ft 136 kts 194°
2026-05-08 13:21 50.96142 -1.35057 169 ft 143 kts 197°
2026-05-08 13:22 50.95226 -1.35559 36 ft 126 kts 197°
2026-05-08 13:22 50.94651 -1.35890 35 ft 26 kts 196°
2026-05-08 13:22 50.94564 -1.35969 34 ft 9 kts 270°
2026-05-08 13:22 50.94587 -1.36080 34 ft 11 kts 293°
2026-05-08 13:23 50.94624 -1.36131 34 ft 12 kts 338°
2026-05-08 13:23 50.94715 -1.36111 34 ft 18 kts 18°
2026-05-08 13:23 50.94806 -1.36060 35 ft 15 kts 19°
2026-05-08 13:23 50.94900 -1.36008 35 ft 15 kts 21°
2026-05-08 13:24 50.94990 -1.35956 35 ft 14 kts 20°
2026-05-08 13:24 50.95075 -1.35910 35 ft 6 kts 19°
2026-05-08 13:24 50.95092 -1.35914 35 ft 1 kts 300°
2026-05-08 13:24 50.95104 -1.35968 35 ft 6 kts 289°
2026-05-08 13:25 50.95107 -1.35986 35 ft 0 kts 289°